N1KE PHOG-PHNL

Flight info

Callsign N1KE
Flight time 0h 30m
Altitude 17500
Route DCT
Aircraft GLF6/L-VGDW/C

Departure

Time 2026-04-12 04:35
Airport Kahului International Airport (PHOG)

Arrival

Time 2026-04-12 05:05
Airport Daniel K. Inouye International Airport (PHNL)
Time Latitude Longitude Altitude Speed Heading
2026-04-12 04:22 20.89728 -156.42835 54 ft 0 kts 302°
2026-04-12 04:32 20.89729 -156.42836 54 ft 2 kts 302°
2026-04-12 04:32 20.89768 -156.42856 52 ft 11 kts 21°
2026-04-12 04:33 20.89858 -156.42787 48 ft 18 kts 34°
2026-04-12 04:33 20.89968 -156.42703 46 ft 19 kts 35°
2026-04-12 04:33 20.90063 -156.42636 44 ft 9 kts 15°
2026-04-12 04:33 20.90119 -156.42680 41 ft 11 kts 306°
2026-04-12 04:34 20.90104 -156.42749 41 ft 11 kts 215°
2026-04-12 04:34 20.90043 -156.42795 41 ft 14 kts 216°
2026-04-12 04:34 20.89747 -156.43016 51 ft 96 kts 214°
2026-04-12 04:34 20.89016 -156.43574 394 ft 148 kts 215°
2026-04-12 04:35 20.88098 -156.44249 1229 ft 175 kts 216°
2026-04-12 04:35 20.87277 -156.44835 2801 ft 127 kts 214°
2026-04-12 04:35 20.86600 -156.45325 3578 ft 122 kts 215°
2026-04-12 04:35 20.85942 -156.45802 4374 ft 114 kts 215°
2026-04-12 04:36 20.85126 -156.46393 4705 ft 171 kts 215°
2026-04-12 04:36 20.84082 -156.47144 5643 ft 194 kts 215°
2026-04-12 04:36 20.82947 -156.47957 6824 ft 205 kts 215°
2026-04-12 04:36 20.81757 -156.48787 8021 ft 214 kts 215°
2026-04-12 04:37 20.80493 -156.49652 9162 ft 225 kts 215°
2026-04-12 04:37 20.79186 -156.50526 10403 ft 230 kts 218°
2026-04-12 04:37 20.78203 -156.51791 11677 ft 227 kts 251°
2026-04-12 04:37 20.78067 -156.53398 12925 ft 228 kts 282°
2026-04-12 04:38 20.78811 -156.54840 14129 ft 235 kts 310°
2026-04-12 04:38 20.80013 -156.56062 15224 ft 245 kts 313°
2026-04-12 04:38 20.81148 -156.57394 16322 ft 249 kts 298°
2026-04-12 04:38 20.81953 -156.59079 16488 ft 259 kts 291°
2026-04-12 04:39 20.82661 -156.60828 16495 ft 255 kts 289°
2026-04-12 04:39 20.83329 -156.62556 16492 ft 249 kts 289°
2026-04-12 04:39 20.83988 -156.64278 16503 ft 252 kts 289°
2026-04-12 04:39 20.84647 -156.66008 16514 ft 255 kts 289°
2026-04-12 04:40 20.85326 -156.67795 16502 ft 256 kts 289°
2026-04-12 04:40 20.85997 -156.69563 16509 ft 258 kts 289°
2026-04-12 04:40 20.86669 -156.71339 16506 ft 259 kts 289°
2026-04-12 04:40 20.87346 -156.73126 16505 ft 259 kts 289°
2026-04-12 04:41 20.88024 -156.74915 16519 ft 259 kts 289°
2026-04-12 04:41 20.88694 -156.76685 16510 ft 258 kts 289°
2026-04-12 04:41 20.89370 -156.78474 16512 ft 257 kts 289°
2026-04-12 04:41 20.90037 -156.80240 16518 ft 258 kts 289°
2026-04-12 04:42 20.90712 -156.82030 16515 ft 259 kts 289°
2026-04-12 04:42 20.91385 -156.83807 16520 ft 258 kts 289°
2026-04-12 04:42 20.92059 -156.85594 16520 ft 257 kts 289°
2026-04-12 04:43 20.93395 -156.89137 16524 ft 258 kts 288°
2026-04-12 04:43 20.94067 -156.90916 16522 ft 257 kts 288°
2026-04-12 04:43 20.94741 -156.92705 16521 ft 257 kts 288°
2026-04-12 04:43 20.95406 -156.94470 16518 ft 257 kts 288°
2026-04-12 04:44 20.96047 -156.96269 16509 ft 257 kts 281°
2026-04-12 04:44 20.96052 -156.98141 16529 ft 253 kts 258°
2026-04-12 04:44 20.95746 -156.99973 16521 ft 254 kts 259°
2026-04-12 04:44 20.95439 -157.01846 16517 ft 252 kts 259°
2026-04-12 04:45 20.95138 -157.03680 16517 ft 253 kts 259°
2026-04-12 04:45 20.94828 -157.05553 16517 ft 254 kts 259°
2026-04-12 04:45 20.94515 -157.07413 16519 ft 253 kts 259°
2026-04-12 04:45 20.94205 -157.09262 16514 ft 254 kts 259°
2026-04-12 04:46 20.93899 -157.11104 16513 ft 254 kts 259°
2026-04-12 04:46 20.93588 -157.12959 16517 ft 254 kts 259°
2026-04-12 04:46 20.93281 -157.14819 16516 ft 253 kts 259°
2026-04-12 04:46 20.93019 -157.16682 16504 ft 254 kts 268°
2026-04-12 04:47 20.93268 -157.18561 16524 ft 255 kts 279°
2026-04-12 04:47 20.93624 -157.20448 16511 ft 257 kts 279°
2026-04-12 04:47 20.93982 -157.22333 16466 ft 259 kts 278°
2026-04-12 04:47 20.94341 -157.24217 16222 ft 257 kts 279°
2026-04-12 04:48 20.94691 -157.26051 15987 ft 253 kts 279°
2026-04-12 04:48 20.95041 -157.27882 15746 ft 248 kts 279°
2026-04-12 04:48 20.95385 -157.29684 15504 ft 244 kts 279°
2026-04-12 04:48 20.95722 -157.31447 15261 ft 241 kts 279°
2026-04-12 04:49 20.96056 -157.33197 15020 ft 237 kts 279°
2026-04-12 04:49 20.96383 -157.34912 14780 ft 234 kts 279°
2026-04-12 04:49 20.96708 -157.36614 14536 ft 232 kts 279°
2026-04-12 04:49 20.97026 -157.38281 14295 ft 229 kts 279°
2026-04-12 04:50 20.97346 -157.39961 14048 ft 227 kts 279°
2026-04-12 04:50 20.97656 -157.41585 13810 ft 224 kts 280°
2026-04-12 04:50 20.97967 -157.43219 13567 ft 222 kts 280°
2026-04-12 04:50 20.98273 -157.44827 13320 ft 220 kts 280°
2026-04-12 04:51 20.98576 -157.46419 13075 ft 219 kts 280°
2026-04-12 04:51 20.98878 -157.48012 12826 ft 217 kts 280°
2026-04-12 04:51 20.99178 -157.49585 12582 ft 216 kts 280°
2026-04-12 04:51 20.99477 -157.51161 12340 ft 215 kts 280°
2026-04-12 04:52 20.99771 -157.52712 12103 ft 214 kts 280°
2026-04-12 04:52 21.00066 -157.54263 11861 ft 213 kts 281°
2026-04-12 04:52 21.00362 -157.55826 11615 ft 212 kts 281°
2026-04-12 04:52 21.00654 -157.57365 11371 ft 211 kts 281°
2026-04-12 04:53 21.00944 -157.58896 11128 ft 211 kts 280°
2026-04-12 04:53 21.01235 -157.60432 10882 ft 210 kts 281°
2026-04-12 04:53 21.01812 -157.63483 10398 ft 210 kts 281°
2026-04-12 04:54 21.02101 -157.65016 10150 ft 209 kts 281°
2026-04-12 04:54 21.02388 -157.66531 9914 ft 209 kts 281°
2026-04-12 04:54 21.02677 -157.68060 9674 ft 209 kts 280°
2026-04-12 04:54 21.02963 -157.69580 9435 ft 208 kts 281°
2026-04-12 04:55 21.03250 -157.71097 9193 ft 208 kts 281°
2026-04-12 04:55 21.03539 -157.72626 8956 ft 208 kts 280°
2026-04-12 04:55 21.03824 -157.74141 8717 ft 208 kts 280°
2026-04-12 04:55 21.04110 -157.75658 8474 ft 209 kts 280°
2026-04-12 04:56 21.04395 -157.77173 8234 ft 209 kts 280°
2026-04-12 04:56 21.04684 -157.78703 7995 ft 209 kts 280°
2026-04-12 04:56 21.04972 -157.80238 7752 ft 210 kts 280°
2026-04-12 04:56 21.05259 -157.81763 7517 ft 210 kts 279°
2026-04-12 04:57 21.05546 -157.83293 7276 ft 211 kts 280°
2026-04-12 04:57 21.05834 -157.84830 7035 ft 211 kts 280°
2026-04-12 04:57 21.06124 -157.86374 6790 ft 211 kts 279°
2026-04-12 04:57 21.06413 -157.87912 6543 ft 212 kts 280°
2026-04-12 04:58 21.06703 -157.89459 6308 ft 212 kts 280°
2026-04-12 04:58 21.06993 -157.91008 6067 ft 213 kts 279°
2026-04-12 04:58 21.07281 -157.92548 5818 ft 213 kts 280°
2026-04-12 04:58 21.07635 -157.94087 5571 ft 214 kts 291°
2026-04-12 04:59 21.08316 -157.95509 5340 ft 214 kts 296°
2026-04-12 04:59 21.09016 -157.96910 5112 ft 214 kts 296°
2026-04-12 04:59 21.09724 -157.98332 4868 ft 215 kts 297°
2026-04-12 04:59 21.10732 -157.99483 4621 ft 217 kts 329°
2026-04-12 05:00 21.12205 -157.99828 4391 ft 219 kts
2026-04-12 05:00 21.13714 -157.99567 4164 ft 219 kts
2026-04-12 05:00 21.15218 -157.99220 3915 ft 220 kts 19°
2026-04-12 05:00 21.16469 -157.98262 3682 ft 220 kts 47°
2026-04-12 05:01 21.17457 -157.97029 3452 ft 220 kts 50°
2026-04-12 05:01 21.18451 -157.95764 3209 ft 221 kts 50°
2026-04-12 05:01 21.19442 -157.94501 2970 ft 221 kts 50°
2026-04-12 05:01 21.20428 -157.93236 2793 ft 216 kts 50°
2026-04-12 05:02 21.21368 -157.92020 2572 ft 210 kts 50°
2026-04-12 05:02 21.22288 -157.90826 2327 ft 205 kts 50°
2026-04-12 05:02 21.23188 -157.89648 2085 ft 201 kts 50°
2026-04-12 05:02 21.24218 -157.88750 1988 ft 186 kts 19°
2026-04-12 05:03 21.25463 -157.88437 2008 ft 179 kts 10°
2026-04-12 05:03 21.26679 -157.88185 1862 ft 177 kts
2026-04-12 05:03 21.27880 -157.87935 1612 ft 176 kts
2026-04-12 05:03 21.29056 -157.87701 1631 ft 156 kts
2026-04-12 05:04 21.30149 -157.87712 1264 ft 149 kts 347°
2026-04-12 05:04 21.31049 -157.88139 989 ft 135 kts 330°
2026-04-12 05:04 21.31816 -157.88667 680 ft 128 kts 323°
2026-04-12 05:04 21.32400 -157.89343 434 ft 123 kts 294°
2026-04-12 05:05 21.32541 -157.90224 176 ft 120 kts 268°
2026-04-12 05:05 21.32521 -157.91116 38 ft 119 kts 268°
2026-04-12 05:05 21.32524 -157.91907 22 ft 90 kts 270°
2026-04-12 05:05 21.32525 -157.92358 33 ft 26 kts 271°
2026-04-12 05:06 21.32524 -157.92609 33 ft 28 kts 271°
2026-04-12 05:06 21.32470 -157.92728 31 ft 19 kts 177°
2026-04-12 05:06 21.32371 -157.92679 30 ft 16 kts 91°
2026-04-12 05:06 21.32386 -157.92558 30 ft 16 kts 90°
2026-04-12 05:07 21.32386 -157.92436 29 ft 17 kts 90°
2026-04-12 05:07 21.32386 -157.92299 28 ft 20 kts 90°
2026-04-12 05:07 21.32386 -157.92123 25 ft 27 kts 90°
2026-04-12 05:07 21.32386 -157.91891 18 ft 33 kts 90°
2026-04-12 05:08 21.32379 -157.91669 17 ft 24 kts 111°
2026-04-12 05:08 21.32284 -157.91574 18 ft 17 kts 143°
2026-04-12 05:08 21.32186 -157.91496 19 ft 16 kts 142°
2026-04-12 05:08 21.32130 -157.91450 20 ft 4 kts 140°
2026-04-12 05:09 21.32107 -157.91426 21 ft 6 kts 124°
2026-04-12 05:09 21.32133 -157.91348 22 ft 8 kts 71°
2026-04-12 05:09 21.32112 -157.91342 22 ft 0 kts 240°
2026-04-12 05:09 21.32111 -157.91344 22 ft 0 kts 233°